Satellite: NOAA-11
Catalog number: 19531
Epoch time:      08137.83985667
Element set:    0164
Inclination:      098.7959 deg
RA of node:       227.6015 deg
Eccentricity:    0.0011786
Arg of perigee:   153.9555 deg
Mean anomaly:     206.2203 deg
Mean motion:   14.14870455 rev/day
Decay rate:      -1.97e-06 rev/day^2
Epoch rev:           01347
Checksum:              326

Satellite: NOAA-12
Catalog number: 21263
Epoch time:      08137.89767908
Element set:    0673
Inclination:      098.7658 deg
RA of node:       139.8537 deg
Eccentricity:    0.0011822
Arg of perigee:   212.7827 deg
Mean anomaly:     147.2626 deg
Mean motion:   14.25532175 rev/day
Decay rate:       1.52e-06 rev/day^2
Epoch rev:           88393
Checksum:              340

Satellite: MET-3/5
Catalog number: 21655
Epoch time:      08137.96981906
Element set:    0441
Inclination:      082.5523 deg
RA of node:       126.4398 deg
Eccentricity:    0.0015009
Arg of perigee:   090.3836 deg
Mean anomaly:     269.9006 deg
Mean motion:   13.17015249 rev/day
Decay rate:        5.1e-07 rev/day^2
Epoch rev:           80547
Checksum:              311

Satellite: MET-2/21
Catalog number: 22782
Epoch time:      08137.53565019
Element set:    0145
Inclination:      082.5455 deg
RA of node:       136.6881 deg
Eccentricity:    0.0023245
Arg of perigee:   022.8111 deg
Mean anomaly:     337.4069 deg
Mean motion:   13.83627473 rev/day
Decay rate:        3.5e-07 rev/day^2
Epoch rev:           74275
Checksum:              302

Satellite: OKEAN-4
Catalog number: 23317
Epoch time:      08137.74144169
Element set:     588
Inclination:      082.5412 deg
RA of node:       344.4157 deg
Eccentricity:    0.0020736
Arg of perigee:   228.3885 deg
Mean anomaly:     131.5568 deg
Mean motion:   14.82609327 rev/day
Decay rate:       1.01e-06 rev/day^2
Epoch rev:           73362
Checksum:              304

Satellite: NOAA-14
Catalog number: 23455
Epoch time:      08137.84131537
Element set:    0146
Inclination:      098.9461 deg
RA of node:       210.0636 deg
Eccentricity:    0.0008763
Arg of perigee:   229.0617 deg
Mean anomaly:     130.9795 deg
Mean motion:   14.13739783 rev/day
Decay rate:      -1.28e-06 rev/day^2
Epoch rev:           68992
Checksum:              328

Satellite: SICH-1
Catalog number: 23657
Epoch time:      08137.74305860
Element set:    0386
Inclination:      082.5256 deg
RA of node:       125.3914 deg
Eccentricity:    0.0022471
Arg of perigee:   220.4118 deg
Mean anomaly:     139.5438 deg
Mean motion:   14.81577239 rev/day
Decay rate:       1.88e-06 rev/day^2
Epoch rev:           68556
Checksum:              317

Satellite: NOAA-15
Catalog number: 25338
Epoch time:      08137.89448827
Element set:    0467
Inclination:      098.5528 deg
RA of node:       130.5508 deg
Eccentricity:    0.0011394
Arg of perigee:   129.3651 deg
Mean anomaly:     230.8531 deg
Mean motion:   14.24700359 rev/day
Decay rate:       -3.7e-07 rev/day^2
Epoch rev:           52034
Checksum:              310

Satellite: RESURS
Catalog number: 25394
Epoch time:      08138.75794427
Element set:     928
Inclination:      098.3902 deg
RA of node:       184.1003 deg
Eccentricity:    0.0001069
Arg of perigee:   332.0814 deg
Mean anomaly:     028.0308 deg
Mean motion:   14.24159119 rev/day
Decay rate:       -1.4e-07 rev/day^2
Epoch rev:           51211
Checksum:              276

Satellite: FENGYUN1
Catalog number: 25730
Epoch time:      08137.92517272
Element set:    0416
Inclination:      098.7223 deg
RA of node:       114.7717 deg
Eccentricity:    0.0019356
Arg of perigee:   263.6872 deg
Mean anomaly:     096.2093 deg
Mean motion:   14.07693494 rev/day
Decay rate:      -5.10e-06 rev/day^2
Epoch rev:           46456
Checksum:              317

Satellite: OKEAN-0
Catalog number: 25860
Epoch time:      08137.54031058
Element set:    0370
Inclination:      097.7487 deg
RA of node:       129.4916 deg
Eccentricity:    0.0001731
Arg of perigee:   051.7508 deg
Mean anomaly:     308.3856 deg
Mean motion:   14.73520480 rev/day
Decay rate:        2.9e-07 rev/day^2
Epoch rev:           47473
Checksum:              302

Satellite: NOAA-16
Catalog number: 26536
Epoch time:      08137.89747793
Element set:    0935
Inclination:      099.1548 deg
RA of node:       126.3903 deg
Eccentricity:    0.0009955
Arg of perigee:   318.1280 deg
Mean anomaly:     041.9160 deg
Mean motion:   14.12479318 rev/day
Decay rate:       -6.8e-07 rev/day^2
Epoch rev:           39435
Checksum:              341

Satellite: NOAA-17
Catalog number: 27453
Epoch time:      08137.85435538
Element set:    0928
Inclination:      098.5354 deg
RA of node:       203.3853 deg
Eccentricity:    0.0011683
Arg of perigee:   194.2435 deg
Mean anomaly:     165.8411 deg
Mean motion:   14.23973719 rev/day
Decay rate:       1.68e-06 rev/day^2
Epoch rev:           30634
Checksum:              326

